Wind_Speed
6 7 7 5 5 5 4 3 3 3 3 3 2 2 1 1 1 1 1 2 2 3 3 4 4 5 5 5 6 6 6 7 7 7 7 7 8 7 7 7 7 7 8
5 6 6 5 5 4 3 3 2 2 2 1 1 1 1 1 1 2 2 3 4 5 5 5 6 6 6 6 6 7 7 8 8 9 9 9 8 8 8 8 8 8 8
5 5 5 5 5 4 3 3 2 2 2 1 2 2 3 3 4 4 4 4 5 6 7 7 7 7 7 7 8 8 8 8 8 8 9 10 10 10 10 10 10 10 10
4 4 4 4 4 4 4 3 3 3 3 3 4 4 4 5 6 6 6 6 7 7 8 8 8 9 9 9 9 10 10 10 10 10 11 11 11 11 12 12 12 13 13
3 3 3 3 4 4 4 4 4 4 4 5 5 5 6 7 8 8 7 8 8 9 9 9 9 10 10 10 11 11 12 12 12 13 13 13 13 13 13 13 14 14 14
3 3 3 3 4 5 5 5 5 5 6 6 6 6 6 7 8 8 8 9 9 9 10 11 11 11 12 11 11 11 12 12 13 14 13 13 13 14 14 14 15 15 16
3 4 4 4 5 6 6 6 6 6 7 7 7 8 8 8 9 9 9 9 10 10 11 11 12 13 13 12 12 13 13 13 14 14 14 14 14 14 14 15 16 16 16
4 4 5 6 6 7 8 8 8 8 8 8 8 9 9 10 10 10 9 10 11 12 13 13 13 14 14 14 14 15 14 14 14 14 15 15 15 15 15 15 15 15 16
4 5 5 6 7 8 8 9 10 9 9 9 9 10 10 10 10 11 11 11 12 13 13 13 14 13 14 14 15 15 15 14 14 15 15 15 15 16 17 16 17 17 17
5 6 6 7 7 8 9 9 10 10 9 9 10 10 10 10 11 11 12 12 13 13 13 12 13 13 14 14 15 15 15 15 15 15 15 15 15 16 17 17 17 18 18
6 6 6 7 8 8 9 9 10 10 10 10 10 10 10 10 10 11 12 12 12 12 12 12 13 13 14 14 15 15 15 16 16 16 17 17 17 17 18 18 18 19 19
7 7 8 8 9 9 9 9 10 10 10 10 9 9 9 9 10 11 12 12 12 12 12 12 13 13 13 13 13 14 15 15 15 16 16 17 18 19 19 19 19 19 20
7 8 9 9 10 9 9 10 10 10 10 10 10 10 10 10 11 11 12 12 12 12 12 12 12 12 13 13 14 14 15 15 15 15 16 17 18 19 19 19 19 20 20
9 9 9 10 9 9 10 10 11 11 11 10 10 10 10 11 11 12 12 12 13 13 12 12 13 13 13 13 14 15 15 15 16 16 16 17 18 19 20 20 21 21 21
10 10 10 10 10 10 10 10 11 10 10 11 11 11 11 12 13 13 13 14 13 13 13 13 13 14 14 14 14 15 15 16 16 17 17 18 19 20 20 20 21 22 23
10 10 10 10 10 10 11 11 11 11 11 11 11 12 12 13 14 14 14 14 14 14 14 14 15 15 15 14 14 15 15 16 16 17 17 19 20 21 21 22 23 23 24
11 11 11 11 11 11 11 11 11 12 12 12 12 13 13 13 14 14 14 14 14 14 14 15 16 16 15 16 16 16 17 17 18 18 19 19 20 21 21 22 23 23 24
12 12 12 12 12 12 12 12 13 12 12 13 13 13 13 13 14 14 14 14 14 14 14 15 15 16 16 17 17 17 17 18 19 19 20 21 21 22 22 23 23 24 25
13 13 13 13 13 12 12 13 13 13 13 14 14 14 14 14 14 15 15 15 15 15 15 16 16 17 17 17 17 17 17 18 19 20 21 22 23 24 24 25 25 26 27
14 14 14 14 14 13 13 13 14 14 15 15 14 14 15 15 16 16 15 15 15 16 16 16 17 16 17 17 17 18 19 19 20 21 22 23 24 24 25 26 27 28 28
15 15 15 15 14 14 14 15 15 15 16 16 16 15 15 16 16 16 16 16 16 16 16 15 16 16 17 17 18 19 19 21 22 22 23 24 25 26 26 26 27 28 29
16 16 15 15 15 15 15 16 16 17 17 17 17 16 16 16 17 17 17 16 16 16 16 16 16 16 17 18 18 19 20 21 22 23 24 25 26 26 27 28 28 28 29
16 16 16 16 17 17 17 17 17 17 17 17 17 17 17 17 17 17 17 17 17 17 17 17 17 17 18 19 20 21 22 22 24 24 25 26 26 27 27 29 29 29 30
17 17 18 18 18 18 19 19 18 18 18 18 18 18 18 18 17 17 18 18 18 18 19 19 19 19 20 21 22 22 23 24 25 25 26 27 28 29 28 28 29 29 30
18 19 19 19 20 20 20 20 20 20 20 19 19 19 19 19 19 19 19 20 20 20 20 20 21 21 22 22 23 23 24 25 26 27 27 28 29 30 29 29 30 30 30
20 20 21 21 21 21 21 21 21 21 21 20 20 21 21 20 21 21 21 21 21 21 22 22 22 23 23 24 24 25 26 27 28 28 28 29 30 31 31 31 30 30 31
Wind_Direction
82 78 82 79 84 87 86 86 89 98 96 97 97 85 82 64 78 349 337 303 292 293 291 289 295 298 295 296 297 294 292 291 289 289 286 288 284 281 283 282 282 280 279
67 66 71 64 68 70 74 75 68 66 70 64 53 27 344 329 329 314 310 306 304 295 295 295 298 296 296 298 295 294 291 291 290 284 282 281 279 280 282 281 280 279 280
52 63 65 61 62 58 58 46 29 12 347 336 334 326 314 299 291 293 297 303 301 298 293 290 290 292 293 290 289 293 297 300 300 297 290 281 278 278 280 278 278 279 279
41 49 52 47 41 36 31 22 6 347 330 318 312 310 307 299 291 289 290 297 298 294 291 287 288 286 288 286 284 287 289 289 290 292 293 292 287 284 282 279 281 279 277
33 35 33 26 22 13 4 351 339 326 320 317 311 309 303 296 295 293 293 293 293 291 288 287 283 283 285 284 284 285 287 285 285 287 290 289 287 285 282 281 281 279 277
15 6 3 356 354 352 347 339 328 319 317 317 317 313 311 304 299 296 297 295 295 291 286 285 284 284 285 285 284 285 287 287 284 285 286 286 283 280 280 283 283 282 278
349 344 341 339 336 336 333 329 324 321 318 316 308 306 307 305 303 299 298 296 296 293 287 287 286 283 283 283 283 286 286 286 286 283 283 285 283 282 280 280 281 281 281
337 337 332 330 330 329 327 326 318 311 309 309 305 303 303 302 302 302 299 294 294 293 291 289 287 284 284 284 286 286 285 286 286 285 285 284 282 280 283 284 287 285 284
344 339 334 333 330 327 329 331 329 318 313 310 304 301 300 301 301 302 301 297 295 294 292 290 290 291 291 287 286 285 287 287 288 289 289 287 286 284 284 288 287 285 285
344 339 337 333 332 331 331 332 334 329 321 312 305 302 301 302 302 304 305 304 301 299 296 293 294 292 290 288 286 284 286 286 287 288 288 288 288 289 287 288 288 286 286
349 345 343 336 330 330 331 331 333 330 324 317 309 304 305 307 307 309 311 311 309 304 301 298 300 299 297 293 290 288 288 287 288 288 289 289 288 290 290 290 286 284 285
345 340 338 334 330 327 328 330 332 328 325 323 319 315 312 313 312 311 309 309 310 309 308 306 306 305 302 303 304 300 295 291 291 291 291 292 290 290 290 289 286 284 286
342 338 337 334 331 327 327 329 329 329 329 328 325 323 321 319 319 320 318 318 316 313 312 311 311 312 310 308 307 306 300 297 296 296 297 296 295 293 292 292 289 288 288
343 336 335 336 336 334 331 328 327 327 326 323 320 319 318 317 316 316 316 315 315 313 310 309 311 313 312 310 307 307 306 301 300 300 299 298 299 299 296 292 290 289 290
344 341 335 336 337 335 333 329 329 328 324 321 319 315 314 313 313 312 310 309 313 313 310 310 311 313 310 309 310 311 309 309 306 303 301 301 301 301 299 298 294 292 291
341 339 336 336 334 331 331 333 332 330 326 322 319 315 313 312 312 313 311 309 310 312 308 308 309 310 312 311 309 309 312 311 311 309 310 309 306 303 302 301 297 295 294
340 339 337 333 332 331 333 335 332 329 326 322 319 317 316 315 315 316 315 313 312 311 309 308 309 310 311 310 310 309 310 310 312 311 310 311 312 309 305 301 301 299 297
339 336 335 334 334 335 332 331 331 329 325 324 322 320 318 317 316 317 315 314 312 312 310 309 309 308 309 309 310 310 310 310 311 311 311 311 310 309 309 306 304 303 300
337 334 330 331 331 331 330 330 329 329 328 324 323 323 320 318 318 316 313 311 310 310 310 309 309 308 308 310 312 312 312 313 313 312 313 312 310 308 308 307 305 303 303
332 333 330 330 328 327 325 324 325 325 325 324 322 321 319 317 318 317 314 312 311 310 310 311 311 310 310 311 311 312 312 312 312 312 312 313 311 311 310 309 306 304 303
329 330 330 329 327 325 321 319 320 322 322 322 322 321 318 316 316 316 315 314 312 311 312 313 314 313 313 313 313 313 313 314 314 314 314 314 313 312 312 311 308 306 305
325 327 328 329 327 324 322 320 319 319 319 319 319 319 319 317 314 313 314 313 313 313 314 314 314 313 313 314 315 314 315 315 315 316 315 315 316 315 314 312 311 310 309
323 323 325 323 321 322 322 321 320 319 318 317 317 318 317 318 316 314 313 313 313 313 311 311 310 310 311 313 312 312 314 315 315 316 317 317 316 315 313 312 312 312 311
322 321 320 321 321 320 321 321 321 319 317 316 316 315 315 315 314 313 312 312 312 311 311 311 310 310 311 312 313 313 314 314 315 316 317 317 317 316 315 314 313 312 312
318 319 319 317 317 317 318 318 318 316 315 314 313 312 312 312 310 310 310 309 309 309 309 310 309 309 310 310 311 311 312 313 314 315 316 317 318 318 317 317 315 313 312
316 316 316 315 315 315 315 315 315 315 314 312 311 310 309 309 308 308 308 308 308 307 307 308 308 309 308 308 308 309 311 312 312 312 313 315 316 316 316 316 315 313 313
Height
5893 5894 5894 5894 5895 5895 5895 5895 5895 5896 5896 5896 5896 5896 5896 5896 5897 5897 5896 5896 5896 5896 5896 5896 5896 5896 5896 5896 5895 5895 5895 5895 5895 5894 5894 5894 5893 5893 5893 5892 5892 5892 5892
5895 5896 5896 5895 5896 5896 5896 5896 5896 5896 5896 5896 5896 5896 5896 5896 5896 5896 5896 5896 5896 5896 5896 5896 5895 5895 5895 5895 5894 5894 5894 5894 5893 5893 5892 5892 5892 5892 5891 5891 5890 5890 5890
5897 5897 5897 5897 5897 5897 5897 5897 5897 5897 5897 5896 5896 5896 5896 5896 5896 5896 5895 5895 5895 5895 5895 5895 5894 5894 5894 5894 5893 5893 5892 5892 5891 5891 5890 5890 5890 5889 5889 5889 5888 5888 5888
5898 5898 5898 5898 5898 5898 5897 5897 5897 5897 5896 5896 5896 5896 5895 5895 5895 5895 5894 5894 5894 5893 5893 5893 5893 5892 5892 5892 5891 5891 5891 5890 5889 5889 5888 5888 5887 5887 5886 5886 5886 5885 5885
5899 5899 5899 5899 5899 5898 5898 5898 5897 5897 5896 5896 5895 5895 5894 5894 5894 5893 5892 5892 5892 5891 5891 5891 5891 5890 5890 5889 5889 5889 5888 5888 5887 5886 5886 5885 5884 5884 5884 5883 5883 5882 5882
5900 5899 5899 5899 5899 5899 5898 5897 5897 5896 5896 5895 5894 5894 5894 5893 5892 5892 5891 5891 5891 5890 5889 5888 5888 5888 5887 5887 5886 5886 5885 5885 5884 5884 5883 5882 5881 5881 5880 5880 5879 5879 5878
5900 5900 5899 5899 5899 5898 5898 5897 5896 5895 5895 5894 5894 5893 5893 5892 5891 5890 5890 5889 5888 5888 5886 5885 5886 5885 5884 5884 5883 5883 5882 5881 5881 5880 5880 5879 5878 5878 5877 5876 5876 5875 5874
5900 5900 5899 5899 5898 5898 5897 5896 5895 5894 5893 5893 5893 5892 5891 5891 5890 5888 5887 5887 5886 5885 5884 5884 5883 5882 5882 5881 5881 5880 5879 5878 5877 5877 5876 5876 5875 5874 5874 5873 5872 5871 5871
5900 5899 5899 5898 5898 5897 5896 5895 5894 5893 5892 5891 5891 5890 5890 5889 5888 5887 5885 5885 5884 5883 5882 5881 5880 5878 5878 5878 5877 5877 5876 5875 5874 5873 5873 5872 5871 5871 5870 5869 5868 5868 5867
5900 5899 5898 5897 5897 5896 5895 5894 5892 5891 5890 5890 5889 5888 5887 5887 5886 5885 5884 5883 5881 5880 5879 5878 5878 5876 5875 5874 5874 5873 5872 5872 5871 5870 5869 5868 5867 5867 5866 5865 5864 5863 5862
5899 5899 5898 5897 5896 5895 5894 5893 5891 5890 5889 5888 5887 5886 5885 5884 5884 5883 5882 5881 5879 5878 5877 5876 5875 5874 5873 5871 5870 5869 5868 5867 5867 5866 5865 5864 5864 5863 5861 5860 5859 5858 5857
5899 5898 5897 5896 5895 5894 5893 5892 5890 5889 5888 5886 5885 5884 5883 5882 5882 5881 5879 5878 5877 5876 5875 5874 5872 5871 5870 5869 5867 5866 5864 5863 5863 5862 5861 5860 5859 5858 5857 5855 5854 5853 5852
5899 5897 5896 5895 5894 5893 5892 5891 5889 5888 5886 5885 5884 5883 5882 5881 5880 5878 5877 5876 5875 5873 5872 5871 5870 5868 5867 5866 5864 5863 5861 5860 5859 5858 5857 5856 5854 5853 5851 5850 5849 5848 5847
5898 5897 5895 5894 5893 5891 5890 5889 5888 5886 5885 5884 5882 5881 5880 5879 5877 5876 5875 5874 5872 5871 5869 5868 5867 5866 5864 5863 5861 5859 5858 5856 5855 5854 5852 5851 5849 5848 5846 5844 5843 5842 5840
5897 5896 5895 5893 5892 5890 5889 5888 5886 5885 5883 5882 5881 5879 5878 5877 5875 5874 5873 5871 5870 5868 5867 5865 5864 5863 5861 5859 5858 5856 5854 5852 5851 5849 5848 5846 5844 5842 5840 5838 5837 5835 5834
5896 5895 5894 5892 5891 5889 5888 5886 5885 5883 5882 5880 5879 5877 5876 5874 5873 5871 5870 5868 5867 5866 5863 5862 5861 5859 5858 5856 5854 5853 5851 5849 5847 5845 5843 5841 5839 5837 5835 5833 5831 5829 5827
5896 5894 5893 5891 5890 5888 5886 5885 5883 5882 5880 5878 5877 5875 5873 5871 5870 5868 5867 5865 5864 5862 5861 5859 5858 5856 5854 5853 5851 5849 5847 5845 5843 5841 5839 5836 5834 5831 5829 5827 5824 5822 5820
5895 5893 5892 5890 5888 5887 5885 5883 5882 5880 5878 5876 5874 5872 5871 5869 5868 5866 5864 5862 5861 5859 5858 5856 5854 5853 5851 5849 5847 5845 5844 5841 5839 5837 5834 5832 5829 5826 5824 5821 5819 5816 5814
5893 5892 5890 5888 5887 5885 5883 5882 5880 5878 5876 5874 5872 5870 5868 5866 5865 5863 5861 5860 5858 5856 5855 5853 5851 5849 5847 5845 5843 5841 5839 5837 5835 5832 5830 5827 5824 5821 5818 5815 5812 5810 5807
5892 5890 5888 5886 5885 5883 5881 5880 5878 5876 5874 5872 5870 5867 5866 5864 5862 5860 5858 5856 5855 5853 5851 5849 5847 5845 5843 5841 5839 5837 5835 5833 5830 5828 5825 5822 5818 5815 5812 5809 5806 5803 5800
5890 5888 5886 5884 5883 5881 5879 5877 5875 5874 5872 5870 5867 5865 5863 5861 5859 5857 5855 5853 5851 5849 5847 5845 5843 5841 5839 5837 5836 5833 5831 5828 5825 5822 5819 5816 5813 5810 5807 5803 5800 5796 5793
5888 5886 5884 5883 5881 5879 5877 5875 5873 5871 5869 5867 5865 5863 5860 5858 5856 5854 5852 5850 5848 5846 5844 5842 5840 5838 5836 5833 5831 5829 5826 5824 5821 5818 5814 5811 5807 5803 5800 5796 5793 5789 5786
5886 5884 5882 5880 5878 5876 5874 5872 5870 5868 5865 5863 5861 5859 5857 5855 5853 5851 5848 5846 5844 5842 5840 5838 5836 5834 5831 5829 5826 5824 5821 5818 5815 5812 5808 5805 5801 5798 5794 5790 5786 5782 5778
5883 5882 5879 5877 5875 5873 5871 5869 5867 5865 5862 5860 5858 5856 5854 5852 5849 5847 5845 5843 5840 5838 5836 5834 5831 5829 5826 5824 5821 5818 5815 5812 5809 5806 5803 5799 5795 5792 5788 5783 5779 5775 5771
5881 5879 5876 5874 5872 5870 5868 5866 5863 5861 5859 5856 5854 5852 5850 5848 5845 5843 5841 5838 5836 5834 5831 5829 5826 5824 5821 5819 5816 5813 5810 5807 5803 5800 5796 5793 5789 5785 5780 5777 5772 5768 5764
5877 5875 5873 5871 5868 5866 5864 5862 5859 5857 5855 5852 5850 5847 5845 5843 5840 5838 5836 5834 5831 5829 5826 5824 5821 5819 5816 5813 5810 5807 5804 5801 5797 5794 5790 5786 5782 5778 5774 5770 5766 5761 5757